time_stamp(utc),avg(mph),gust(mph),direction(deg),12m_air_temp(f),sonic_u(cm/s),sonic_v(cm/s),sonic_w(cm/s),pressure,2m_air_temp(f),pyranometer(W/m^2)
"2019-11-17 00:02:54+00",0.0,0.0,,42.4,1767,-668,707,1027.31,41.8,0
"2019-11-17 00:07:54+00",0.5,1.5,,42.5,1709,-804,689,1027.45,42,0
"2019-11-17 00:22:54+00",0.0,0.0,,42.5,-1319,3809,-1885,1027.33,42,0
"2019-11-17 00:27:54+00",0.0,0.0,,42.5,-514,2811,-1294,1027.24,42,0
"2019-11-17 00:32:54+00",0.0,0.0,,42.5,-38,2119,-894,1027.07,42,0
"2019-11-17 00:37:54+00",0.5,1.5,,42.5,1049,296,151,1027.03,42,0
"2019-11-17 00:42:54+00",0.0,0.0,,42.5,-1007,3615,-1708,1027.13,42,0
"2019-11-17 00:47:54+00",0.0,0.0,,42.6,1664,-536,623,1027,42.1,0
"2019-11-17 00:52:54+00",0.0,0.0,,42.7,2769,-2229,1527,1026.97,42.2,0
"2019-11-17 00:57:54+00",0.5,1.5,,42.6,2539,-1916,1394,1026.94,42.1,0
"2019-11-17 01:02:54+00",0.0,0.0,,42.5,-759,3423,-1556,1026.81,42.1,0
"2019-11-17 01:07:54+00",0.5,1.5,,42.5,1336,99,272,1026.78,42.1,0
"2019-11-17 01:12:54+00",0.0,0.0,,42.6,25,2099,-789,1026.76,42.2,0
"2019-11-17 01:17:54+00",0.5,1.5,,42.5,-1452,4328,-2118,1026.76,42.2,0
"2019-11-17 01:32:54+00",0.0,0.0,,42.6,17157,0,0,1026.45,42.1,-0.1
"2019-11-17 01:37:54+00",0.5,1.5,,42.6,2001,-810,781,1026.24,42.1,0
"2019-11-17 01:52:54+00",0.0,0.0,,42.5,-526,3051,-1326,1026.11,42.2,0
"2019-11-17 01:57:54+00",0.5,1.5,,42.7,3414,-3131,2147,1026.06,42.1,0
"2019-11-17 02:22:54+00",0.0,0.0,,42.5,17161,0,1,1025.79,42.1,-0.1
"2019-11-17 02:27:54+00",0.8,1.8,,42.7,2481,-1884,1349,1025.71,42.2,0
"2019-11-17 02:52:54+00",0.6,0.6,,42.7,2143,-1055,820,1025.72,42.2,0
"2019-11-17 02:57:54+00",0.6,0.6,,42.8,643,1024,-333,1025.78,42.4,0
"2019-11-17 03:12:54+00",0.5,1.5,,43,2815,-2226,1536,1025.79,42.5,0
"2019-11-17 03:17:54+00",0.6,0.6,,43,2540,-1485,1200,1025.83,42.7,0
"2019-11-17 03:22:54+00",0.0,0.0,,43,484,1432,-482,1025.97,42.6,0
"2019-11-17 03:27:54+00",0.0,0.0,,43.1,1194,79,192,1025.82,42.8,0
"2019-11-17 03:32:54+00",0.0,0.0,,43.1,17144,0,0,1025.81,42.8,-0.1
"2019-11-17 03:37:54+00",0.0,0.0,,43.2,3352,-3190,1989,1025.83,42.9,0
"2019-11-17 03:42:54+00",0.0,0.0,,43,898,744,-192,1025.88,42.8,0
"2019-11-17 03:47:54+00",0.0,0.0,,43,1833,-588,608,1025.83,42.8,0
"2019-11-17 04:02:54+00",0.0,0.0,,42.8,1061,613,-86,1026.08,42.8,0
"2019-11-17 04:07:54+00",0.0,0.0,,42.8,912,406,47,1025.85,42.5,0
"2019-11-17 04:12:54+00",0.5,1.5,,43,881,959,-206,1025.8,42.6,0
"2019-11-17 04:17:54+00",0.0,0.0,,42.9,1115,470,70,1025.77,42.6,0
"2019-11-17 04:22:54+00",0.0,0.0,,42.6,1048,381,65,1025.83,42.4,0
"2019-11-17 04:27:54+00",0.5,1.5,,42.8,1118,348,43,1025.85,42.5,0
"2019-11-17 04:32:54+00",0.0,0.0,,42.7,1004,349,71,1025.81,42.4,0
"2019-11-17 04:37:54+00",0.0,0.0,,42.9,1301,361,88,1025.68,42.6,0
"2019-11-17 04:42:54+00",0.0,0.0,,41.9,1077,508,60,1025.66,42.2,0
"2019-11-17 04:47:54+00",0.0,0.0,,42.1,882,412,38,1025.58,41.9,0
"2019-11-17 04:52:54+00",0.0,0.0,,42.7,1036,550,45,1025.67,42.2,0
"2019-11-17 04:57:54+00",0.0,0.0,,42.7,1291,448,55,1025.57,42.4,0
"2019-11-17 05:02:54+00",0.0,0.0,,42.4,1070,381,46,1025.52,42.3,0
"2019-11-17 05:07:54+00",0.0,0.0,,42.5,926,532,61,1025.36,42.2,0
"2019-11-17 05:12:54+00",0.0,0.0,,42.8,1075,347,51,1025.22,42.1,0
"2019-11-17 05:17:54+00",0.0,0.0,,43.2,1086,508,41,1025.24,42.5,0
"2019-11-17 05:22:54+00",0.0,0.0,,42.5,957,315,68,1025.26,42.4,0
"2019-11-17 05:27:54+00",0.0,0.0,,42.9,1380,359,62,1025.03,42.3,0
"2019-11-17 05:32:54+00",0.0,0.0,,43,1142,531,25,1025.05,42.5,0
"2019-11-17 05:37:54+00",0.0,0.0,,42.8,943,489,43,1024.96,42.5,0
"2019-11-17 05:42:54+00",0.5,1.5,,42.7,1012,689,60,1024.83,42.4,0
"2019-11-17 05:47:54+00",0.5,1.5,,42.8,1014,459,10,1024.97,42.5,0
"2019-11-17 05:52:54+00",0.5,1.5,,43.1,1275,447,25,1024.95,42.6,0
"2019-11-17 05:57:54+00",0.5,1.5,,42.8,899,480,47,1024.74,42.3,0
"2019-11-17 06:02:54+00",0.5,1.5,,43.3,1199,302,87,1024.71,42.5,0
"2019-11-17 06:07:54+00",0.0,0.0,,43.4,1043,380,56,1024.78,42.8,0
"2019-11-17 06:12:54+00",0.0,0.0,,43.7,1107,262,84,1024.81,43,0
"2019-11-17 06:17:54+00",0.0,0.0,,43.6,951,344,70,1024.78,43.1,0
"2019-11-17 06:22:54+00",0.0,0.0,,44,1081,412,60,1024.83,43.2,0
"2019-11-17 06:27:54+00",0.0,0.0,,44,1064,376,51,1024.68,43.4,0
"2019-11-17 06:32:54+00",0.0,0.0,,43.9,1137,254,75,1024.7,43.4,0
"2019-11-17 06:37:54+00",0.0,0.0,,43.9,1126,331,74,1024.66,43.3,0
"2019-11-17 06:42:54+00",0.0,0.0,,43.6,1123,401,51,1024.6,43.2,0
"2019-11-17 06:47:54+00",0.0,0.0,,43.6,954,328,51,1024.55,43.1,0
"2019-11-17 06:52:54+00",0.0,0.0,,43.8,1116,380,54,1024.47,43.1,0
"2019-11-17 06:57:54+00",0.0,0.0,,43.4,994,431,34,1024.52,43,0
"2019-11-17 07:02:54+00",0.0,0.0,,43.1,1032,480,48,1024.5,42.6,0
"2019-11-17 07:07:54+00",0.0,0.0,,43.1,1072,556,42,1024.4,42.4,0
"2019-11-17 07:12:54+00",0.5,1.5,,43.3,1011,699,56,1024.39,42.6,0
"2019-11-17 07:17:54+00",0.0,0.0,,43.2,1010,437,56,1024.33,42.7,0
"2019-11-17 07:22:54+00",0.0,0.0,,43.2,890,473,50,1024.26,42.7,0
"2019-11-17 07:27:54+00",0.0,0.0,,43.4,930,503,46,1024.3,42.9,0
"2019-11-17 07:32:54+00",0.0,0.0,,43.5,1035,508,41,1024.3,42.9,0
"2019-11-17 07:37:54+00",0.0,0.0,,43.6,985,546,53,1024.18,43,0
"2019-11-17 07:42:54+00",0.0,0.0,,43.4,882,518,44,1024.24,42.8,0
"2019-11-17 07:47:54+00",0.0,0.0,,41,660,684,-2,1024.18,41.6,0
"2019-11-17 07:52:54+00",0.0,0.0,,40.8,498,692,22,1024,40.9,0
"2019-11-17 07:57:54+00",0.0,0.0,,40.6,555,656,23,1023.97,40.5,0
"2019-11-17 08:02:54+00",0.0,0.0,,40.7,605,613,20,1023.86,40.5,0
"2019-11-17 08:07:54+00",0.0,0.0,,40.6,729,807,-2,1023.8,40.4,0
"2019-11-17 08:12:54+00",0.0,0.0,,40.2,525,766,5,1023.84,40.2,0
"2019-11-17 08:17:54+00",0.0,0.0,,40.1,482,711,26,1023.75,39.9,0
"2019-11-17 08:22:54+00",0.0,0.0,,40.9,615,629,16,1023.64,40.4,0
"2019-11-17 08:27:54+00",0.0,0.0,,41.2,638,630,16,1023.82,40.8,0
"2019-11-17 08:32:54+00",0.0,0.0,,42.6,708,549,32,1023.66,41.6,0
"2019-11-17 08:37:54+00",0.0,0.0,,40.8,766,866,4,1023.5,40.9,0
"2019-11-17 08:42:54+00",0.0,0.0,,40.3,639,787,23,1023.66,40.4,0
"2019-11-17 08:47:54+00",0.0,0.0,,40.1,721,838,12,1023.65,40.1,0
"2019-11-17 08:52:54+00",0.0,0.0,,40,533,700,12,1023.72,39.9,0
"2019-11-17 08:57:54+00",0.0,0.0,,40.4,668,715,13,1023.64,40.2,0
"2019-11-17 09:02:54+00",0.0,0.0,,40,662,830,-6,1023.56,40.1,0
"2019-11-17 09:07:54+00",0.0,0.0,,39.6,749,925,10,1023.47,39.7,0
"2019-11-17 09:12:54+00",0.0,0.0,,39.3,698,921,-4,1023.4,39.3,0
"2019-11-17 09:17:54+00",0.0,0.0,,39.2,539,776,3,1023.41,38.9,0
"2019-11-17 09:22:54+00",0.0,0.0,,39.5,587,668,21,1023.33,39.1,0
"2019-11-17 09:27:54+00",0.0,0.0,,39.4,137,1777,-557,1023.24,39.2,0
"2019-11-17 09:32:54+00",0.0,0.0,,39.4,-268,2656,-921,1023.1,39.1,0
"2019-11-17 09:37:54+00",0.0,0.0,,39.3,508,999,-136,1023.15,39,0
"2019-11-17 09:42:54+00",0.0,0.0,,38.9,847,604,169,1023.07,38.6,0
"2019-11-17 09:47:54+00",0.0,0.0,,39,3422,1408,-1777,1023.02,38.6,0
"2019-11-17 10:22:54+00",0.0,0.0,,38.1,27,2075,-622,1022.85,37.9,0
"2019-11-17 10:27:54+00",0.0,0.0,,37.8,1900,1242,-827,1022.99,37.6,0
"2019-11-17 10:32:54+00",0.0,0.0,,37.7,2919,1863,-1899,1022.81,37.4,0
"2019-11-17 10:37:54+00",0.0,0.0,,37.7,1768,1317,-855,1022.91,37.4,0
"2019-11-17 10:42:54+00",0.0,0.0,,37.8,2303,1321,-1248,1022.96,37.4,0
"2019-11-17 10:47:54+00",0.0,0.0,,37.9,4153,928,-1656,1022.86,37.5,0
"2019-11-17 10:52:54+00",0.0,0.0,,38,3482,1047,-1501,1022.79,37.5,0
"2019-11-17 10:57:54+00",0.0,0.0,,37.7,2777,1047,-1076,1022.83,37.4,0
"2019-11-17 11:02:54+00",0.0,0.0,,38,-173,1531,-46,1022.91,37.6,0
"2019-11-17 11:07:54+00",0.5,1.5,,38,402,982,-3,1022.98,37.7,0
"2019-11-17 11:12:54+00",0.5,1.5,,37.9,219,1205,27,1022.95,37.7,0
"2019-11-17 11:17:54+00",0.0,0.0,,37.6,-84,1700,-127,1023.07,37.4,0
"2019-11-17 11:22:54+00",0.0,0.0,,37.5,318,1021,-63,1023.18,37.3,0
"2019-11-17 11:27:54+00",0.0,0.0,,37.7,710,1184,-195,1023.17,37.3,0
"2019-11-17 11:32:54+00",0.0,0.0,,37.6,448,950,29,1023.18,37.3,0
"2019-11-17 11:37:54+00",0.0,0.0,,37.5,-62,1420,6,1023,37.1,0
"2019-11-17 11:42:54+00",0.0,0.0,,37.5,54,1306,-37,1023,37.1,0
"2019-11-17 11:47:54+00",0.5,1.5,,37.6,468,789,57,1023.13,37.3,0
"2019-11-17 11:52:54+00",0.0,0.0,,37.5,479,1004,-69,1023.1,37.2,0
"2019-11-17 11:57:54+00",0.0,0.0,,37.6,550,832,100,1023.16,37.2,0
"2019-11-17 12:02:54+00",0.0,0.0,,37.6,341,992,133,1023.17,37.3,0
"2019-11-17 12:07:54+00",0.0,0.0,,37.6,801,757,33,1023.14,37.2,0
"2019-11-17 12:12:54+00",0.0,0.0,,37.7,625,798,140,1023.07,37.3,0
"2019-11-17 12:17:54+00",0.0,0.0,,37.8,301,872,35,1023.01,37.4,0
"2019-11-17 12:22:54+00",0.0,0.0,,38,348,785,66,1022.89,37.6,0
"2019-11-17 12:27:54+00",0.0,0.0,,38.1,257,926,-16,1022.92,37.8,0
"2019-11-17 12:32:54+00",0.0,0.0,,38.1,592,562,246,1022.93,37.8,0
"2019-11-17 12:37:54+00",0.0,0.0,,38.2,306,829,143,1022.94,37.9,0
"2019-11-17 12:42:54+00",0.0,0.0,,38.2,734,1034,-161,1022.92,37.8,0
"2019-11-17 12:47:54+00",0.5,1.5,,38.3,427,737,104,1023.03,37.9,0
"2019-11-17 12:52:54+00",0.0,0.0,,38.4,481,885,3,1022.92,38,0
"2019-11-17 12:57:54+00",0.0,0.0,,38.5,373,836,0,1023.03,38.1,0
"2019-11-17 13:02:54+00",0.5,1.5,,38.7,727,995,-127,1022.96,38.3,0
"2019-11-17 13:07:54+00",0.0,0.0,,38.7,688,795,53,1023.01,38.4,0
"2019-11-17 13:12:54+00",0.0,0.0,,38.9,519,867,1,1022.93,38.6,0
"2019-11-17 13:17:54+00",0.0,0.0,,39,527,1181,-171,1022.89,38.7,0
"2019-11-17 13:22:54+00",0.0,0.0,,39,745,1124,-233,1022.78,38.7,0
"2019-11-17 13:27:54+00",0.0,0.0,,38.9,862,669,93,1022.77,38.7,0
"2019-11-17 13:32:54+00",0.0,0.0,,38.9,472,942,-108,1022.92,38.7,0
"2019-11-17 13:37:54+00",0.5,1.5,,39,713,973,-155,1022.76,38.7,0
"2019-11-17 13:42:54+00",0.0,0.0,,39.1,624,1018,-140,1022.79,38.8,0.8
"2019-11-17 13:47:54+00",0.0,0.0,,39.2,513,870,-20,1022.76,39,0
"2019-11-17 13:52:54+00",0.0,0.0,,39.7,584,889,-119,1022.75,39.3,0
"2019-11-17 13:57:54+00",0.5,1.5,,40,896,956,-220,1022.66,39.7,0
"2019-11-17 14:02:54+00",0.0,0.0,,40,673,978,-176,1022.45,39.7,0.6
"2019-11-17 14:07:54+00",0.0,0.0,,39.7,901,973,-167,1022.52,39.5,1.8
"2019-11-17 14:12:54+00",0.0,0.0,,39.7,786,796,-47,1022.5,39.5,2.6
"2019-11-17 14:17:54+00",0.0,0.0,,39.8,636,1159,-155,1022.47,39.6,0
"2019-11-17 14:22:54+00",0.0,0.0,,39.8,731,1290,-332,1022.41,39.7,1.9
"2019-11-17 14:27:54+00",0.0,0.0,,40,1029,1173,-390,1022.33,39.8,6.7
"2019-11-17 14:32:54+00",0.0,0.0,,39.8,1100,1053,-342,1022.3,39.7,2.7
"2019-11-17 14:37:54+00",0.0,0.0,,39.8,548,1543,-409,1022.22,39.7,19.6
"2019-11-17 14:42:54+00",0.5,1.5,,40,807,930,-182,1022.2,39.8,10.4
"2019-11-17 14:47:54+00",0.5,1.5,,39.9,627,1079,-92,1022.18,39.8,3.8
"2019-11-17 14:52:54+00",0.0,0.0,,40,666,1226,-298,1022.23,39.8,0.3
"2019-11-17 14:57:54+00",0.0,0.0,,40.1,475,1018,-99,1022.17,40,2.4
"2019-11-17 15:02:54+00",0.5,1.5,,40.1,474,1438,-222,1021.92,40.1,16.5
"2019-11-17 15:07:54+00",0.0,0.0,,40.2,481,1356,-240,1021.8,40.1,4.5
"2019-11-17 15:12:54+00",0.0,0.0,,40.3,816,1136,-157,1021.78,40.3,4.5
"2019-11-17 15:17:54+00",0.0,0.0,,40.4,962,969,-266,1021.75,40.5,2.4
"2019-11-17 15:22:54+00",0.0,0.0,,40.6,1145,504,174,1021.69,40.7,2.6
"2019-11-17 15:27:54+00",0.0,0.0,,40.5,901,1022,-125,1021.56,40.6,4.1
"2019-11-17 15:32:54+00",0.0,0.0,,40.6,1045,700,-104,1021.53,40.7,4.5
"2019-11-17 15:37:54+00",0.0,0.0,,40.8,900,778,24,1021.46,40.9,8.2
"2019-11-17 15:42:54+00",0.5,1.5,,41.5,993,1103,-450,1021.37,41.6,18.6
"2019-11-17 15:47:54+00",0.0,0.0,,41.9,555,1679,-542,1021.34,42.3,3
"2019-11-17 15:52:54+00",0.0,0.0,,41.8,171,1289,8,1021.23,41.9,9.4
"2019-11-17 15:57:54+00",0.0,0.0,,41.9,775,1168,-216,1021.18,42.2,28.9
"2019-11-17 16:02:54+00",0.0,0.0,,42.1,725,1433,-391,1021.24,42.3,54.5
"2019-11-17 16:07:54+00",0.0,0.0,,42.1,448,1215,-169,1021.24,42.3,24.7
"2019-11-17 16:12:54+00",0.5,1.5,,42.1,620,1268,-211,1021.23,42.4,26.5
"2019-11-17 16:17:54+00",0.0,0.0,,42.2,678,1542,-459,1021.05,42.5,37.4
"2019-11-17 16:22:54+00",0.0,0.0,,41.9,169,1731,-350,1020.98,42.3,61.7
"2019-11-17 16:27:54+00",0.0,0.0,,41.7,684,1099,-109,1020.82,42.1,26.4
"2019-11-17 16:32:54+00",0.5,1.5,,41.8,1114,1743,-742,1020.87,42.1,33.4
"2019-11-17 16:37:54+00",0.5,1.5,,41.9,658,1345,-325,1020.87,42.1,26.8
"2019-11-17 16:42:54+00",0.0,0.0,,42,430,1464,-305,1020.92,42.2,18.4
"2019-11-17 16:47:54+00",0.0,0.0,,42.3,486,1425,-305,1020.82,42.5,21.8
"2019-11-17 16:52:54+00",0.0,0.0,,42.5,436,1301,-226,1020.58,42.6,19.3
"2019-11-17 16:57:54+00",0.0,0.0,,42.2,457,1263,-160,1020.36,42.4,30
"2019-11-17 17:02:54+00",0.0,0.0,,42.3,-183,1593,5,1020.27,42.5,26
"2019-11-17 17:07:54+00",0.0,0.0,,42.4,248,1284,40,1020.12,42.6,47.8
"2019-11-17 17:12:54+00",0.0,0.0,,42.5,289,1201,50,1020.1,42.7,33.1
"2019-11-17 17:17:54+00",0.0,0.0,,42.7,524,1224,-18,1019.92,42.8,24
"2019-11-17 17:22:54+00",0.0,0.0,,42.5,1535,-322,783,1019.88,42.7,26.7
"2019-11-17 17:27:54+00",0.0,0.0,,42.7,644,1016,3,1019.83,42.7,21.5
"2019-11-17 17:32:54+00",0.0,0.0,,42.5,499,1688,-406,1019.71,42.6,16.8
"2019-11-17 17:37:54+00",0.0,0.0,,42.6,643,1317,-297,1019.59,42.6,18
"2019-11-17 17:42:54+00",0.0,0.0,,42.4,917,1604,-512,1019.41,42.6,20.8
"2019-11-17 17:47:54+00",0.0,0.0,,42.5,699,1258,-284,1019.39,42.7,18.1
"2019-11-17 17:52:54+00",0.0,0.0,,42.6,390,1491,-299,1019.19,42.8,14.7
"2019-11-17 17:57:54+00",0.0,0.0,,42.7,634,1548,-409,1019.08,42.8,17.6
"2019-11-17 18:02:54+00",0.0,0.0,,42.8,675,1621,-423,1019.13,42.8,9.9
"2019-11-17 18:07:54+00",0.0,0.0,,42.8,820,1156,-232,1019.11,42.9,5.2
"2019-11-17 18:12:54+00",0.0,0.0,,42.9,766,1311,-372,1019.05,42.9,3.6
"2019-11-17 18:17:54+00",0.5,1.5,,43.2,874,1442,-510,1018.82,43.1,7.6
"2019-11-17 18:22:54+00",0.5,1.5,,43.2,911,1190,-291,1018.76,43.1,13.3
"2019-11-17 18:27:54+00",0.0,0.0,,43.2,791,1660,-491,1018.68,43.2,20.3
"2019-11-17 18:32:54+00",0.0,0.0,,43.2,765,1720,-595,1018.61,43.1,10.5
"2019-11-17 18:37:54+00",0.0,0.0,,43.2,932,1788,-649,1018.56,43.1,2.8
"2019-11-17 18:42:54+00",0.0,0.0,,42.8,469,847,-56,1018.47,42.8,3
"2019-11-17 18:47:54+00",0.0,0.0,,42.9,643,663,-189,1018.5,42.8,5.6
"2019-11-17 19:12:54+00",0.5,1.5,,42.5,-2042,-3923,-2499,1018.1,42.4,0.3
"2019-11-17 19:17:54+00",0.5,1.5,,42.8,-1855,-3705,-2730,1018.12,42.6,0.2
"2019-11-17 22:22:54+00",0.0,0.0,,42,17138,0,1,1016.81,41.8,-0.1
"2019-11-17 22:27:54+00",0.5,1.5,,41.9,-656,-1284,-1514,1016.78,41.6,0
"2019-11-17 22:52:54+00",0.0,0.0,,41.7,17161,0,1,1016.66,41.5,-0.1
"2019-11-17 22:57:54+00",0.0,0.0,,41.7,-1875,-4352,-2528,1016.58,41.4,0
"2019-11-17 23:22:54+00",0.5,1.5,,41.4,-504,-981,-705,1016.23,41.2,0
"2019-11-17 23:27:54+00",0.5,1.5,,41.4,275,254,-248,1016.22,41.1,0
"2019-11-17 23:32:54+00",0.6,0.6,,41.2,369,670,-173,1016.25,41,0
"2019-11-17 23:37:54+00",0.0,0.0,,41,252,988,-134,1016.07,40.8,0
"2019-11-17 23:42:54+00",0.0,0.0,,41,295,142,-289,1016.01,40.7,0
"2019-11-17 23:47:54+00",0.0,0.0,,40.9,438,866,-276,1016.01,40.6,0
"2019-11-17 23:52:54+00",0.0,0.0,,40.9,303,538,-189,1016.04,40.6,0
"2019-11-17 23:57:54+00",0.0,0.0,,40.9,452,1087,-196,1016.08,40.5,0
